Wind_Speed
30 30 31 31 31 31 30 30 30 30 30 30 30 29 29 29 29 29 29 29 28 28 28 28 28 28 29 29 29 30 30 31 31 32 32 32 32 32 31 31 31 31
30 31 31 32 32 32 32 32 32 31 31 31 31 31 31 31 31 31 31 31 30 30 29 29 29 30 30 31 31 32 32 32 33 33 34 34 34 33 33 33 32 32
31 31 32 33 33 33 33 33 33 33 33 33 33 33 33 33 33 33 33 32 32 31 31 31 31 31 32 32 33 33 34 34 34 35 35 36 36 35 35 35 34 34
32 32 33 34 34 34 33 33 34 34 34 35 35 35 35 35 35 35 34 34 33 33 32 32 32 33 33 34 34 35 35 35 35 36 36 37 37 37 37 37 36 36
33 33 34 34 33 33 34 34 34 35 36 36 36 36 36 36 36 36 36 35 34 33 33 33 33 34 34 35 36 36 37 37 37 37 37 37 38 39 39 39 38 37
33 34 34 34 34 34 34 35 35 36 37 38 38 37 37 37 37 37 36 36 35 35 35 35 35 35 36 36 37 38 38 38 39 39 39 39 39 40 40 40 39 39
33 34 34 34 35 35 36 36 36 37 38 39 38 38 38 38 38 37 37 37 36 36 36 36 36 36 37 38 38 39 39 40 40 40 40 40 40 41 41 41 41 40
34 34 34 36 37 37 38 38 38 38 39 39 39 39 39 39 38 38 38 38 37 38 38 38 38 38 38 39 40 41 41 42 42 42 42 42 42 42 42 42 42 42
34 35 36 37 38 39 40 40 40 40 40 40 39 40 39 39 39 39 38 38 38 38 39 39 39 39 40 40 41 41 42 43 43 43 43 43 43 43 42 42 42 42
35 35 37 38 39 40 41 41 41 40 40 41 41 40 40 39 39 39 38 38 39 39 39 39 40 40 41 42 42 43 43 43 43 44 44 44 44 43 43 43 43 42
35 37 38 39 40 40 40 40 40 40 41 41 41 41 40 39 39 39 39 39 39 39 40 40 41 41 42 43 43 44 44 45 44 44 44 45 45 45 45 44 44 44
37 38 39 39 39 39 40 40 40 40 41 41 41 40 40 39 38 38 38 39 39 39 40 40 41 41 42 43 43 44 44 44 44 44 44 44 45 45 45 45 45 46
37 37 38 38 39 39 39 40 40 41 41 41 40 40 39 38 38 38 38 38 38 39 39 39 39 40 40 41 41 41 42 42 42 43 43 43 44 44 45 45 46 46
35 36 37 38 39 39 39 40 41 41 41 40 39 38 38 38 38 37 37 37 37 37 37 37 38 38 39 39 40 41 42 43 43 44 44 45 45 46 46 46 47 47
35 37 38 39 39 39 40 40 41 40 39 38 38 38 37 37 36 36 35 35 36 36 37 38 39 40 41 42 43 43 44 45 46 47 48 48 48 49 49 50 50 50
37 38 39 39 39 40 40 40 40 38 38 37 37 37 36 35 35 35 35 36 37 38 40 41 42 43 44 45 46 47 48 49 50 50 50 51 51 51 51 51 52 52
38 39 39 39 40 40 39 39 37 36 36 37 37 36 35 35 35 36 37 38 39 40 41 43 44 45 47 48 49 50 51 51 51 51 51 51 51 51 50 50 50 51
39 39 39 39 39 38 37 36 35 36 36 36 36 35 35 36 37 38 39 39 40 41 43 44 45 46 48 49 49 50 50 51 51 51 51 51 51 51 51 51 51 51
37 38 38 38 37 36 35 34 35 36 36 36 35 36 36 37 38 39 40 40 41 42 43 44 45 46 47 48 49 49 50 51 51 52 52 52 53 53 53 53 53 53
36 36 36 35 35 34 34 34 35 36 36 36 36 37 37 38 39 40 40 41 42 43 44 45 45 46 47 48 49 50 51 51 52 53 53 54 54 55 55 55 56 56
34 34 34 33 33 33 34 35 35 35 35 36 37 37 38 38 39 40 41 42 43 44 44 45 46 47 48 49 49 50 51 52 53 54 54 55 56 56 57 58 58 59
32 32 32 32 32 33 34 34 34 35 35 36 37 37 38 38 39 40 41 42 43 44 45 46 47 48 49 49 50 51 52 53 53 54 55 56 57 58 58 59 60 61
31 31 32 32 33 33 33 33 34 35 35 36 36 37 38 38 39 40 41 42 44 45 46 47 48 49 50 50 51 51 52 53 54 55 55 56 57 58 59 60 61 62
31 31 31 32 32 32 32 33 34 35 35 35 36 37 37 38 40 41 42 43 44 46 47 48 49 50 50 51 52 52 53 53 54 55 56 56 57 58 59 61 62 64
30 30 31 31 31 32 32 33 33 34 34 35 36 37 38 39 40 42 43 44 45 46 47 48 49 50 50 51 52 53 54 54 55 55 56 57 58 59 60 62 63 65
29 29 30 30 30 31 32 32 32 32 33 35 36 37 39 40 41 42 44 45 45 46 47 48 49 50 51 52 52 53 54 55 55 56 56 57 58 60 61 63 65 67
Wind_Direction
280 282 283 285 286 287 288 289 290 290 291 291 292 293 293 293 292 293 293 292 292 292 292 292 292 292 292 291 290 289 288 289 289 289 290 291 293 294 295 296 298 299
281 282 284 285 287 289 289 290 291 291 292 293 295 296 296 295 294 294 293 293 293 293 293 293 292 292 292 291 291 290 289 289 289 289 290 290 291 292 294 295 296 297
280 281 282 284 286 288 289 291 292 294 296 297 298 298 298 297 296 295 293 293 293 294 294 294 293 293 292 292 291 290 290 290 289 290 290 291 291 292 293 294 295 295
278 279 280 282 284 287 290 292 294 296 298 300 300 300 299 298 296 294 293 293 293 293 293 293 293 293 293 292 292 291 290 290 289 289 289 290 291 291 292 292 293 294
276 276 278 281 285 288 291 293 295 297 298 299 299 299 298 297 295 294 293 292 292 293 293 292 293 293 293 293 293 292 292 291 291 290 290 290 290 291 291 291 291 292
274 276 279 282 285 288 291 294 295 296 297 298 298 298 297 296 295 294 293 293 293 293 293 293 293 294 294 294 294 293 293 293 292 292 291 291 290 291 291 290 290 290
273 275 278 281 284 287 290 293 294 295 295 297 298 297 297 296 295 294 294 294 294 294 294 294 294 294 294 294 294 294 294 294 293 293 292 292 291 291 291 290 290 289
272 274 277 279 283 286 289 292 294 295 296 297 298 298 297 296 295 295 295 295 295 295 295 295 295 295 295 295 295 296 296 296 295 295 294 293 292 291 290 290 289 289
272 274 277 279 283 286 289 292 294 296 297 298 299 299 298 297 297 296 296 297 297 297 297 297 297 297 296 296 296 296 296 296 296 295 294 294 293 292 291 289 288 288
272 275 278 281 284 287 290 293 295 297 298 300 300 300 299 299 298 298 298 298 298 298 298 298 298 298 298 297 297 297 296 296 295 295 294 293 292 291 290 289 288 287
273 277 280 284 287 289 292 294 296 298 299 300 301 301 300 299 299 299 299 299 299 299 299 299 300 299 299 299 298 297 297 296 295 295 294 293 292 291 290 289 288 286
276 279 282 285 288 290 292 295 297 298 300 301 301 301 300 300 300 300 300 300 300 300 300 299 299 299 298 298 297 297 296 296 296 295 294 294 293 292 291 290 289 287
278 281 284 286 289 291 293 296 298 299 300 300 300 300 300 301 301 301 300 300 300 300 300 300 299 299 298 298 297 296 296 295 295 295 295 294 293 292 291 290 289 288
280 282 285 287 290 293 295 297 299 300 300 300 300 301 302 302 302 302 302 302 302 301 301 300 299 299 299 299 298 298 297 296 296 295 295 295 294 293 292 290 290 289
281 284 287 290 293 295 297 298 299 300 300 301 302 303 303 303 303 304 304 304 303 303 303 302 302 301 300 300 299 299 298 297 296 295 294 293 292 291 290 289 288 287
282 286 289 292 294 296 297 298 299 300 301 303 304 304 305 305 305 305 305 306 306 306 306 305 304 304 303 302 301 300 299 298 297 296 294 293 291 290 289 288 287 286
284 287 290 293 294 296 297 298 299 301 303 305 305 306 306 306 307 307 308 308 308 307 307 306 306 305 305 304 303 302 302 301 300 299 298 297 295 293 292 290 289 287
285 288 291 292 294 295 297 299 301 304 306 307 307 307 307 308 308 308 308 308 308 308 307 307 307 306 306 305 304 304 303 303 302 301 301 300 298 297 295 293 291 289
287 289 291 292 294 296 298 301 304 306 307 307 307 307 308 308 308 308 308 308 308 307 307 307 307 306 306 306 305 305 305 304 303 303 302 301 300 299 297 296 294 291
288 289 291 293 295 298 301 304 306 307 307 307 307 307 307 308 308 308 308 308 308 308 308 308 308 308 307 307 307 307 306 306 305 304 303 302 301 300 298 296 295 293
288 290 292 294 297 300 303 305 306 305 305 306 306 306 307 307 307 308 308 309 309 309 309 309 309 309 309 309 309 308 308 307 306 306 305 304 302 301 300 298 296 294
289 291 294 296 299 302 304 304 304 304 304 305 305 306 307 308 308 309 310 311 311 311 311 311 311 311 311 311 310 310 310 309 308 307 306 305 304 303 301 300 298 296
290 292 295 298 301 302 303 303 304 304 304 305 306 307 308 309 310 311 312 312 313 313 313 313 313 313 313 312 312 312 311 311 310 309 308 307 306 305 304 302 301 299
292 294 297 299 301 302 302 303 303 304 305 307 308 309 310 311 312 313 314 314 314 315 315 315 315 315 315 315 315 314 314 313 312 312 311 310 309 308 306 305 303 302
294 296 298 299 300 301 301 302 304 306 307 309 310 311 312 313 314 315 316 316 316 316 317 317 317 318 318 317 317 317 316 315 315 314 313 312 311 310 309 307 306 305
296 297 298 298 299 300 301 304 306 308 309 311 312 313 314 315 316 317 317 317 318 318 319 319 320 320 320 320 320 319 319 318 317 316 315 314 313 313 312 311 309 308
Height
5802 5801 5800 5800 5799 5799 5798 5797 5796 5795 5794 5793 5792 5791 5790 5789 5788 5787 5786 5785 5784 5783 5782 5781 5780 5779 5778 5777 5776 5775 5774 5772 5771 5770 5769 5767 5766 5765 5763 5762 5760 5759
5799 5798 5797 5797 5796 5795 5794 5794 5793 5792 5791 5790 5789 5788 5787 5786 5785 5784 5783 5782 5781 5779 5778 5777 5776 5775 5774 5773 5772 5771 5770 5769 5767 5766 5765 5763 5762 5761 5759 5758 5756 5755
5796 5795 5794 5794 5793 5792 5791 5790 5790 5789 5788 5787 5785 5784 5783 5782 5781 5780 5779 5778 5777 5775 5774 5773 5772 5771 5770 5769 5768 5767 5766 5765 5763 5762 5760 5759 5758 5757 5755 5754 5752 5751
5793 5793 5792 5791 5790 5789 5788 5788 5787 5786 5785 5783 5782 5781 5779 5778 5777 5776 5775 5774 5772 5771 5770 5769 5768 5767 5766 5765 5764 5763 5761 5760 5759 5758 5756 5755 5753 5752 5751 5750 5748 5747
5790 5789 5788 5788 5787 5786 5785 5784 5784 5783 5781 5780 5779 5777 5776 5775 5773 5772 5771 5770 5768 5767 5766 5765 5763 5762 5761 5760 5759 5758 5757 5755 5754 5753 5752 5750 5749 5747 5746 5745 5744 5743
5787 5786 5785 5784 5784 5783 5782 5781 5780 5779 5778 5777 5775 5774 5772 5771 5769 5768 5766 5765 5764 5763 5761 5760 5759 5758 5757 5755 5754 5753 5752 5751 5749 5748 5747 5745 5744 5743 5741 5740 5739 5738
5783 5782 5782 5781 5780 5780 5779 5778 5777 5776 5775 5773 5771 5770 5768 5767 5765 5764 5762 5761 5759 5758 5757 5756 5754 5753 5752 5751 5749 5748 5747 5745 5744 5743 5742 5740 5739 5738 5736 5735 5734 5733
5780 5779 5779 5778 5777 5776 5776 5775 5774 5772 5771 5769 5767 5766 5764 5763 5761 5759 5758 5756 5755 5753 5752 5751 5749 5748 5747 5746 5744 5743 5741 5740 5739 5738 5736 5735 5734 5732 5731 5730 5728 5727
5777 5776 5775 5774 5774 5773 5772 5771 5770 5768 5766 5765 5763 5761 5760 5758 5757 5755 5753 5751 5750 5749 5747 5746 5744 5743 5742 5740 5739 5738 5736 5735 5733 5732 5731 5729 5728 5727 5726 5724 5723 5722
5773 5772 5772 5771 5770 5769 5768 5767 5765 5764 5762 5760 5759 5757 5756 5754 5752 5750 5749 5747 5745 5744 5743 5741 5739 5738 5736 5735 5734 5732 5731 5729 5728 5727 5725 5723 5722 5721 5720 5718 5717 5716
5769 5769 5768 5767 5766 5765 5764 5763 5761 5760 5758 5756 5755 5753 5751 5749 5748 5746 5744 5742 5741 5739 5737 5736 5734 5732 5731 5729 5728 5726 5725 5723 5722 5721 5719 5717 5716 5714 5713 5712 5711 5710
5766 5765 5764 5764 5763 5762 5760 5759 5757 5756 5754 5752 5751 5749 5747 5745 5743 5741 5739 5738 5736 5734 5733 5731 5729 5728 5726 5724 5723 5721 5719 5718 5716 5714 5713 5711 5710 5708 5706 5705 5704 5703
5762 5761 5761 5760 5759 5758 5756 5755 5753 5752 5750 5748 5746 5744 5742 5740 5738 5736 5735 5733 5731 5729 5728 5726 5724 5723 5721 5719 5717 5716 5714 5712 5711 5709 5707 5705 5703 5702 5700 5698 5697 5695
5758 5757 5757 5756 5755 5754 5752 5751 5749 5747 5746 5744 5742 5740 5738 5736 5734 5732 5730 5728 5726 5725 5723 5721 5720 5718 5716 5714 5712 5710 5708 5706 5705 5703 5701 5699 5697 5695 5694 5692 5690 5688
5754 5753 5753 5752 5751 5749 5748 5746 5745 5743 5741 5739 5737 5735 5733 5731 5729 5727 5725 5723 5722 5720 5718 5716 5714 5712 5711 5709 5707 5704 5702 5700 5698 5697 5695 5693 5691 5689 5687 5685 5683 5681
5750 5749 5749 5748 5746 5745 5744 5742 5740 5738 5736 5734 5732 5731 5728 5727 5725 5723 5721 5719 5717 5715 5713 5710 5708 5706 5704 5702 5700 5698 5695 5693 5691 5689 5687 5685 5684 5682 5680 5677 5675 5673
5746 5746 5745 5744 5742 5741 5739 5737 5736 5734 5732 5730 5728 5726 5724 5722 5720 5718 5716 5714 5712 5710 5707 5705 5703 5700 5697 5695 5692 5690 5688 5685 5683 5681 5678 5676 5675 5673 5671 5669 5667 5665
5743 5742 5741 5739 5738 5736 5735 5733 5731 5729 5727 5725 5723 5721 5719 5718 5715 5713 5711 5709 5707 5705 5702 5700 5697 5694 5692 5689 5686 5683 5681 5678 5675 5673 5670 5668 5666 5664 5662 5660 5659 5657
5739 5737 5736 5735 5734 5732 5730 5728 5727 5725 5723 5721 5719 5717 5715 5713 5711 5709 5706 5704 5702 5700 5697 5695 5692 5690 5687 5683 5680 5677 5674 5671 5668 5665 5663 5660 5658 5655 5653 5651 5649 5647
5734 5733 5732 5731 5729 5727 5726 5724 5722 5720 5719 5717 5715 5713 5711 5708 5706 5704 5702 5699 5697 5695 5692 5690 5687 5685 5682 5678 5675 5672 5668 5665 5662 5658 5655 5652 5649 5646 5643 5641 5639 5637
5730 5729 5728 5726 5725 5723 5722 5720 5718 5717 5715 5712 5710 5708 5706 5704 5702 5700 5697 5695 5692 5690 5687 5685 5682 5679 5676 5673 5669 5666 5662 5658 5655 5651 5648 5644 5641 5638 5634 5631 5629 5626
5726 5725 5724 5722 5721 5719 5718 5716 5715 5713 5711 5708 5706 5704 5702 5700 5698 5695 5693 5690 5688 5685 5682 5679 5676 5673 5670 5667 5664 5660 5656 5652 5648 5645 5641 5637 5633 5629 5625 5622 5618 5615
5723 5721 5720 5718 5717 5715 5714 5713 5711 5709 5707 5704 5702 5700 5698 5696 5693 5691 5689 5686 5683 5680 5677 5674 5671 5667 5664 5661 5657 5654 5650 5646 5642 5638 5634 5629 5625 5620 5616 5612 5608 5604
5719 5717 5716 5714 5713 5711 5710 5709 5707 5705 5703 5700 5698 5696 5694 5692 5689 5687 5684 5682 5679 5675 5672 5668 5665 5661 5658 5654 5650 5647 5643 5639 5635 5631 5626 5622 5617 5612 5607 5603 5598 5593
5715 5714 5712 5711 5709 5708 5706 5705 5703 5701 5699 5697 5694 5692 5690 5687 5685 5682 5679 5676 5674 5670 5667 5663 5659 5656 5652 5648 5644 5640 5636 5632 5628 5624 5619 5614 5609 5604 5599 5594 5588 5583
5711 5710 5708 5707 5706 5704 5703 5702 5700 5698 5695 5693 5691 5688 5686 5683 5680 5678 5675 5672 5668 5665 5662 5658 5654 5650 5646 5642 5638 5634 5629 5625 5621 5617 5612 5606 5601 5596 5590 5585 5579 5572